[[{"header":{"parameterUnit":"m.s-1","parameterCategory":2,"la1":30.2991,"la2":30.254,"lo1":-89.0895,"lo2":-89.0444,"dy":0.0017,"dx":0.0017,"nx":28,"ny":28,"refTime":"2025-04-14T03:00:00:Z","depth":"0","parameterNumber":2,"parameterNumberName":"U-component_of_CURRENTS"},"data":[0,0,0,0,0,0,0,0,0,0,0,0,0,0,0,0,0,0,0,0,0,0,0,0,0,0,0,0,0,0,0,0,0,0,0,0,0,0,0,0,0,0,0,0,0,0,0,0,0,0,0,0,0,0,0,0,0,0,0.0036,0.0037,0,0.0096,0.0096,0.0097,0.013,0.013,0.0131,0.0131,0.016,0.0161,0.0162,0,0,0,0,0,0,0,0,0,0,0,0,0,-0.0069,-0.0067,0.0036,0.0037,0.0038,0.0096,0.0096,0.0097,0.013,0.013,0.0131,0.0131,0.016,0.0161,0.0162,0,0,0,0,0,0,0,0,0,0,0,0,0,-0.0017,-0.0066,0.0036,0.0061,0.0064,0.0095,0.0096,0.0097,0.013,0.013,0.0131,0.0131,0.016,0.0161,0.0162,0.0166,0,0,0.0165,0.0166,0,0,0,0,0,0,0,0,-0.002,-0.0014,0.0057,0.0059,0.0063,0.0106,0.007,0.0119,0.013,0.0105,0.0131,0.0131,0.0139,0.0142,0.0153,0.0167,0.0168,0.0165,0.0166,0.0166,0.0167,0,0,0,0,0,0,0,-0.0024,-0.0016,0.006,0.0057,0.0061,0.0062,0.007,0.008,0.012,0.0107,0.011,0.0116,0.0141,0.0152,0.0154,0.0169,0.0165,0.0166,0.0167,0.0167,0.0181,0.018,0,0,0,0,0,0,-0.003,-0.0019,0.0058,0.0062,0.002,0.0064,0.0073,0.0092,0.0121,0.0126,0.0116,0.0118,0.0151,0.0153,0.0155,0.0168,0.0166,0.0167,0.0168,0.0181,0.0181,0.018,0,0,0,0,0,0,-0.0032,-0.0023,0.0055,0.0021,0.0032,0.0066,0.0087,0.0093,0.0104,0.0128,0.0132,0.0121,0.0151,0.0154,0.0158,0.0169,0.0168,0.0169,0.0181,0.0181,0.018,0.0189,0,0,0,0,0,0,-0.0035,-0.0024,-0.0018,0.0022,0.0033,0.0073,0.0087,0.0094,0.0108,0.011,0.0133,0.0137,0.0151,0.0156,0.0159,0.0171,0.017,0.0182,0.0181,0.0181,0.0189,0.0189,0.0189,0,0,0,0,0,-0.0039,-0.0028,-0.0018,-0.0009,0.0043,0.0073,0.0079,0.0103,0.0108,0.0113,0.0123,0.0136,0.0155,0.0157,0.016,0.0172,0.0182,0.0181,0.0181,0.0189,0.0189,0.0189,0,0,0,0,0,0,-0.0081,-0.0023,-0.001,0.0014,0.004,0.0078,0.0084,0.01,0.0114,0.0111,0.0131,0.0135,0.0144,0.015,0.0151,0.0172,0.0171,0.0171,0.0176,0.0176,0.0176,0.0177,0.0171,0,0,0,0,0,-0.0085,-0.0056,-0.0013,0.0003,0.0016,0.0047,0.006,0.0077,0.0097,0.0104,0.0119,0.0131,0.0144,0.0152,0.0161,0.0172,0.0166,0.018,0.018,0.018,0.0182,0.0179,0.0179,0.0178,0.0178,0.0178,0,0,-0.0101,-0.0064,-0.0051,-0.0004,0.0017,0.004,0.0056,0.0073,0.0087,0.0103,0.0117,0.0128,0.0144,0.0159,0.0163,0.0166,0.0174,0.0179,0.018,0.0181,0.0178,0.0178,0.0178,0.0178,0.0178,0.0178,0,0,-0.0112,-0.0083,-0.006,-0.0037,-0.0002,0.0024,0.0028,0.0064,0.0074,0.0087,0.0103,0.0118,0.0135,0.0156,0.0168,0.0168,0.017,0.0171,0.0179,0.0176,0.0176,0.0177,0.0157,0.0156,0.0176,0.0176,0.0176,0,-0.0139,-0.0092,-0.0056,-0.0031,-0.0015,0.0017,0.0033,0.0051,0.0081,0.0085,0.0087,0.0121,0.0136,0.0164,0.017,0.0171,0.0161,0.0182,0.0177,0.0177,0.0177,0.0157,0.0156,0.0176,0.0176,0.0176,0.0176,0,-0.0127,-0.0095,-0.0085,-0.0033,-0.0016,0.0003,0.0034,0.0047,0.0061,0.0078,0.0095,0.0118,0.0136,0.0152,0.0166,0.0181,0.017,0.0174,0.018,0.0178,0.0157,0.0155,0.0177,0.0176,0.0176,0.0176,0,0,-0.017,-0.009,-0.0088,-0.0063,-0.0015,0.0001,0.002,0.005,0.0059,0.0082,0.0091,0.0129,0.0136,0.0148,0.017,0.0185,0.0179,0.0183,0.0183,0.0168,0.0157,0.0177,0.0177,0.0183,0.0183,0.0183,0.0138,0,-0.0172,-0.0125,-0.0086,-0.0053,-0.0025,0.0005,0.0019,0.0041,0.0061,0.0075,0.0099,0.0113,0.0135,0.0145,0.0161,0.0175,0.0175,0.0189,0.0158,0.0157,0.0179,0.0176,0.0201,0.0166,0.0136,0.0136,0.0136,0,-0.0169,-0.0132,-0.0101,-0.0048,-0.0038,-0.0022,0.0007,0.0025,0.005,0.0055,0.0076,0.0091,0.0116,0.013,0.0145,0.0151,0.015,0.0163,0.0161,0.0178,0.0174,0.0165,0.0164,0.017,0.0132,0.0133,0.0133,0,-0.0203,-0.0143,-0.0117,-0.0101,-0.0043,-0.0036,-0.0012,0.0015,0.0029,0.0043,0.0049,0.007,0.008,0.0089,0.0116,0.0121,0.013,0.0131,0.0145,0.0145,0.016,0.0162,0.0167,0.013,0.013,0.0131,0.0131,0,-0.0205,-0.0179,-0.0131,-0.0115,-0.0091,-0.0059,-0.0037,-0.0018,0.0004,0.0025,0.0035,0.0057,0.0073,0.0087,0.0099,0.0118,0.0105,0.0145,0.014,0.0162,0.0165,0.0167,0.0163,0.0129,0.0129,0.013,0.013,0,-0.0214,-0.0189,-0.0153,-0.0111,-0.0098,-0.0084,-0.0037,-0.0014,-0.0011,0.0018,0.0018,0.0037,0.0055,0.0073,0.0088,0.0099,0.0113,0.012,0.0139,0.0139,0.0163,0.0159,0.0108,0.0115,0.0116,0.0116,0.0117,0,-0.0189,-0.0178,-0.0153,-0.0132,-0.0104,-0.0073,-0.0041,-0.0023,0.0007,0.0021,0.0038,0.0047,0.0081,0.0097,0.0114,0.0119,0.0121,0.0142,0.0166,0.017,0.0161,0.0121,0.0127,0.0175,0.0175,0.0176,0.0176,0,-0.0134,-0.0152,-0.0128,-0.0106,-0.0076,-0.0031,0.0012,0.0024,0.0049,0.0064,0.0093,0.011,0.0117,0.0144,0.0143,0.0158,0.0142,0.0155,0.0156,0.021,0.0167,0.017,0.0183,0.0182,0.0181,0.0181,0.018,0.018,-0.0085,-0.0078,-0.0076,-0.0055,-0.0023,0.0023,0.0063,0.0102,0.0139,0.0173,0.0162,0.0187,0.0175,0.0186,0.0188,0.0199,0.0174,0.0221,0.0212,0.0166,0.0191,0.0214,0.0216,0.0216,0.0216,0.0216,0.0215,0,-0.0001,-0.0021,-0.0006,0.0019,0.0057,0.0059,0.0117,0.0156,0.0211,0.022,0.025,0.0239,0.0259,0.0232,0.0233,0.0252,0.0228,0.0266,0.0221,0.0225,0.0248,0.0274,0.0294,0.0294,0.0294,0.0294,0.0294,0.0294,0.0044,0.005,0.0027,0.0088,0.0111,0.0181,0.0214,0.0255,0.0271,0.0286,0.0274,0.0256,0.0215,0.0223,0.0254,0.0271,0.0258,0.0253,0.0238,0.0273,0.0268,0.0263,0.0287,0.0309,0.0309,0.0216,0.0216,0.0215]},{"header":{"parameterUnit":"m.s-1","parameterCategory":2,"la1":30.2991,"la2":30.254,"lo1":-89.0895,"lo2":-89.0444,"dy":0.0017,"dx":0.0017,"nx":28,"ny":28,"refTime":"2025-04-14T03:00:00:Z","depth":"0","parameterNumber":3,"parameterNumberName":"V-component_of_CURRENTS"},"data":[0,0,0,0,0,0,0,0,0,0,0,0,0,0,0,0,0,0,0,0,0,0,0,0,0,0,0,0,0,0,0,0,0,0,0,0,0,0,0,0,0,0,0,0,0,0,0,0,0,0,0,0,0,0,0,0,0,0,0.0037,0.0037,0,0.001,0.001,0.0009,-0.0016,-0.0016,-0.0016,-0.0016,-0.0062,-0.0063,-0.0065,0,0,0,0,0,0,0,0,0,0,0,0,0,0.006,0.0059,0.0037,0.0037,0.0037,0.0011,0.001,0.0009,-0.0016,-0.0016,-0.0016,-0.0016,-0.0062,-0.0063,-0.0065,0,0,0,0,0,0,0,0,0,0,0,0,0,0.0041,0.0059,0.0037,0.0023,0.0022,0.0011,0.001,0.0009,-0.0016,-0.0016,-0.0016,-0.0016,-0.0061,-0.0063,-0.0065,-0.0074,0,0,-0.007,-0.0071,0,0,0,0,0,0,0,0,0.0042,0.004,0.0026,0.0024,0.0023,0.0003,0.0001,-0.0019,-0.0016,-0.0004,-0.0016,-0.0016,-0.004,-0.0044,-0.0052,-0.0076,-0.0078,-0.007,-0.0071,-0.0072,-0.0073,0,0,0,0,0,0,0,0.0043,0.0041,0.0024,0.0026,0.0024,0.0016,0.0013,-0.0003,-0.0024,-0.0005,-0.0007,-0.0005,-0.0042,-0.0051,-0.0054,-0.0078,-0.007,-0.0072,-0.0073,-0.0074,-0.0123,-0.0124,0,0,0,0,0,0,0.0052,0.0042,0.0025,0.0024,0.0035,0.0016,0.0013,0.0007,-0.0023,-0.0027,-0.0005,-0.0006,-0.0048,-0.0052,-0.0055,-0.0072,-0.0072,-0.0074,-0.0075,-0.0123,-0.0124,-0.0124,0,0,0,0,0,0,0.0053,0.0051,0.0026,0.0035,0.0031,0.0016,0.001,0.0007,-0.0002,-0.0022,-0.0027,-0.001,-0.0048,-0.0053,-0.0073,-0.0074,-0.0075,-0.0076,-0.0123,-0.0123,-0.0124,-0.0102,0,0,0,0,0,0,0.0053,0.0051,0.0047,0.0035,0.0031,0.0016,0.0011,0.0006,0.0,-0.0002,-0.0028,-0.0033,-0.0048,-0.007,-0.0075,-0.0076,-0.0078,-0.0123,-0.0123,-0.0124,-0.0102,-0.0101,-0.0101,0,0,0,0,0,0.0054,0.0051,0.0046,0.0044,0.0027,0.0017,0.0013,0.0001,0.0,-0.0007,-0.0024,-0.0032,-0.0077,-0.0072,-0.0077,-0.0079,-0.0122,-0.0123,-0.0123,-0.0102,-0.0102,-0.0101,0,0,0,0,0,0,0.0062,0.0048,0.0043,0.0036,0.0026,0.0013,0.0008,0.0003,-0.0016,-0.0019,-0.0036,-0.0042,-0.0061,-0.0074,-0.0068,-0.0095,-0.0101,-0.0102,-0.0083,-0.0082,-0.0081,-0.009,-0.0079,0,0,0,0,0,0.0062,0.0052,0.0042,0.0036,0.0033,0.0021,0.0015,0.0007,-0.0007,-0.0015,-0.0031,-0.005,-0.0068,-0.0077,-0.0097,-0.011,-0.0116,-0.0116,-0.0115,-0.0114,-0.0125,-0.0122,-0.0121,-0.0126,-0.0126,-0.0126,0,0,0.0065,0.0055,0.0051,0.0036,0.0028,0.0018,0.0016,0.0007,-0.0002,-0.0017,-0.0037,-0.005,-0.0072,-0.009,-0.0099,-0.0099,-0.0115,-0.0115,-0.0114,-0.0126,-0.0122,-0.0122,-0.0121,-0.0126,-0.0126,-0.0126,0,0,0.0064,0.0057,0.0046,0.0039,0.0027,0.0017,0.0016,0.0003,-0.0005,-0.0023,-0.0035,-0.005,-0.0077,-0.0092,-0.0102,-0.011,-0.0113,-0.0113,-0.0114,-0.011,-0.0109,-0.0109,-0.011,-0.011,-0.0109,-0.0109,-0.0109,0,0.0068,0.0051,0.0043,0.0033,0.0027,0.0018,0.0008,-0.0001,-0.002,-0.0028,-0.003,-0.0065,-0.0081,-0.0099,-0.0104,-0.0109,-0.0107,-0.0112,-0.0107,-0.0107,-0.0107,-0.0109,-0.0109,-0.0108,-0.0109,-0.0109,-0.0109,0,0.0059,0.0045,0.0041,0.002,0.0014,0.0004,-0.0005,-0.0017,-0.0025,-0.0035,-0.0053,-0.0069,-0.0091,-0.0093,-0.0104,-0.0111,-0.011,-0.0106,-0.0106,-0.0105,-0.0107,-0.0108,-0.0107,-0.0107,-0.0108,-0.0108,0,0,0.0057,0.0038,0.0034,0.0022,0.0006,-0.0001,-0.0015,-0.0033,-0.0043,-0.0055,-0.0066,-0.009,-0.0093,-0.0106,-0.0111,-0.0109,-0.0106,-0.0108,-0.0108,-0.0104,-0.0097,-0.0098,-0.0099,-0.0092,-0.0093,-0.0093,-0.0096,0,0.0046,0.0027,0.0022,0.0,-0.0015,-0.0021,-0.0032,-0.0046,-0.0059,-0.0072,-0.0079,-0.0093,-0.0097,-0.0102,-0.0102,-0.0109,-0.0107,-0.0106,-0.0105,-0.0105,-0.0101,-0.01,-0.009,-0.0093,-0.0097,-0.0097,-0.0097,0,0.0025,0.0014,-0.0001,-0.002,-0.0024,-0.0033,-0.0054,-0.0061,-0.0078,-0.0085,-0.0094,-0.01,-0.0109,-0.0105,-0.0112,-0.0108,-0.0107,-0.0106,-0.0106,-0.0119,-0.0108,-0.0097,-0.0094,-0.0084,-0.0098,-0.0098,-0.0098,0,0.0008,-0.0009,-0.002,-0.0025,-0.004,-0.0047,-0.0054,-0.007,-0.0081,-0.0088,-0.0101,-0.0104,-0.0113,-0.0106,-0.0115,-0.0109,-0.0117,-0.0106,-0.0106,-0.0106,-0.0107,-0.0107,-0.0093,-0.0108,-0.0108,-0.0108,-0.0108,0,-0.0017,-0.0036,-0.0028,-0.0037,-0.005,-0.0053,-0.007,-0.0076,-0.0091,-0.011,-0.0104,-0.0124,-0.0113,-0.012,-0.0115,-0.0118,-0.0116,-0.0114,-0.0108,-0.0099,-0.0098,-0.0098,-0.0092,-0.0108,-0.0108,-0.0108,-0.0108,0,-0.0062,-0.005,-0.0065,-0.0064,-0.0062,-0.0071,-0.0082,-0.0097,-0.0104,-0.0128,-0.013,-0.0143,-0.0146,-0.0137,-0.0132,-0.0126,-0.011,-0.012,-0.0115,-0.0108,-0.0096,-0.0089,-0.0065,-0.0065,-0.0118,-0.0118,-0.0118,0,-0.0097,-0.0104,-0.0083,-0.0073,-0.0075,-0.0084,-0.0092,-0.0102,-0.0122,-0.0148,-0.0164,-0.0171,-0.0184,-0.0174,-0.015,-0.0131,-0.0118,-0.0116,-0.0107,-0.01,-0.0088,-0.0066,-0.0067,-0.0096,-0.0096,-0.0096,-0.0096,0,-0.0157,-0.0134,-0.0128,-0.0098,-0.0093,-0.0106,-0.012,-0.0139,-0.0156,-0.0176,-0.0204,-0.021,-0.0204,-0.0174,-0.0145,-0.0138,-0.0099,-0.0114,-0.0105,-0.0073,-0.0051,-0.0047,-0.0093,-0.0095,-0.0095,-0.0095,-0.0095,-0.0095,-0.0189,-0.0178,-0.0131,-0.0107,-0.0109,-0.0117,-0.0121,-0.0144,-0.0166,-0.0175,-0.0212,-0.0191,-0.0166,-0.0122,-0.0125,-0.0098,-0.0096,-0.0085,-0.0078,-0.0058,-0.0054,-0.0104,-0.0101,-0.0101,-0.0101,-0.0102,-0.0102,0,-0.0186,-0.0151,-0.0139,-0.0097,-0.0103,-0.0102,-0.0126,-0.0117,-0.0129,-0.0142,-0.0151,-0.0104,-0.0083,-0.0062,-0.0036,-0.0045,-0.0045,-0.0054,-0.0021,-0.0025,-0.0067,-0.0064,-0.0055,-0.0055,-0.0055,-0.0055,-0.0055,-0.0055,-0.0168,-0.0122,-0.0097,-0.0078,-0.0072,-0.0067,-0.0072,-0.0061,-0.0056,-0.0022,0.0013,0.0017,0.0044,0.0053,0.0036,0.001,0.0012,0.001,0.0003,-0.0025,-0.0027,-0.003,-0.0025,-0.0008,-0.0008,0.0053,0.0053,0.0053]}],[{"header":{"parameterUnit":"m.s-1","parameterCategory":2,"la1":30.2991,"la2":30.254,"lo1":-89.0895,"lo2":-89.0444,"dy":0.0017,"dx":0.0017,"nx":28,"ny":28,"refTime":"2025-04-14T03:00:00:Z","depth":"2","parameterNumber":2,"parameterNumberName":"U-component_of_CURRENTS"},"data":[0,0,0,0,0,0,0,0,0,0,0,0,0,0,0,0,0,0,0,0,0,0,0,0,0,0,0,0,0,0,0,0,0,0,0,0,0,0,0,0,0,0,0,0,0,0,0,0,0,0,0,0,0,0,0,0,0,0,-0.029,-0.0289,0,-0.0236,-0.0235,-0.0235,-0.0194,-0.0193,-0.0193,-0.0193,-0.0174,-0.0174,-0.0174,0,0,0,0,0,0,0,0,0,0,0,0,0,-0.0355,-0.0354,-0.029,-0.0289,-0.0289,-0.0236,-0.0235,-0.0234,-0.0194,-0.0193,-0.0193,-0.0192,-0.0174,-0.0174,-0.0174,0,0,0,0,0,0,0,0,0,0,0,0,0,-0.0316,-0.0354,-0.029,-0.0263,-0.026,-0.0236,-0.0235,-0.0234,-0.0194,-0.0193,-0.0193,-0.0192,-0.0175,-0.0174,-0.0174,-0.0181,0,0,-0.0173,-0.0173,0,0,0,0,0,0,0,0,-0.0318,-0.0314,-0.0267,-0.0264,-0.0261,-0.0222,-0.0252,-0.0219,-0.0194,-0.0218,-0.0193,-0.0192,-0.0194,-0.0192,-0.0182,-0.0181,-0.018,-0.0173,-0.0173,-0.0173,-0.0173,0,0,0,0,0,0,0,-0.0321,-0.0316,-0.0268,-0.0267,-0.0263,-0.0252,-0.0246,-0.0245,-0.021,-0.0216,-0.0213,-0.0208,-0.0193,-0.0182,-0.0181,-0.018,-0.0173,-0.0173,-0.0173,-0.0173,-0.0192,-0.0193,0,0,0,0,0,0,-0.033,-0.0318,-0.027,-0.0266,-0.029,-0.0251,-0.0244,-0.0234,-0.0209,-0.0204,-0.0209,-0.0206,-0.0183,-0.0181,-0.018,-0.0176,-0.0173,-0.0172,-0.0172,-0.0192,-0.0192,-0.0193,0,0,0,0,0,0,-0.0331,-0.0326,-0.0272,-0.0292,-0.0284,-0.0251,-0.024,-0.0233,-0.0217,-0.0203,-0.0199,-0.0198,-0.0182,-0.0181,-0.0184,-0.0175,-0.0172,-0.0172,-0.0191,-0.0192,-0.0193,-0.0175,0,0,0,0,0,0,-0.0333,-0.0326,-0.0313,-0.0292,-0.0284,-0.0263,-0.024,-0.0233,-0.0216,-0.0212,-0.0193,-0.0191,-0.0182,-0.0185,-0.0184,-0.0175,-0.0172,-0.019,-0.0191,-0.0193,-0.0175,-0.0175,-0.0176,0,0,0,0,0,-0.0336,-0.0328,-0.0313,-0.0306,-0.0269,-0.0264,-0.0258,-0.0233,-0.0216,-0.0215,-0.0204,-0.0191,-0.0193,-0.0185,-0.0184,-0.0175,-0.0189,-0.0191,-0.0192,-0.0174,-0.0175,-0.0176,0,0,0,0,0,0,-0.036,-0.0323,-0.0305,-0.0288,-0.0278,-0.0257,-0.0251,-0.0233,-0.0221,-0.0213,-0.02,-0.0198,-0.0193,-0.0198,-0.019,-0.0188,-0.0189,-0.0191,-0.0176,-0.0177,-0.0177,-0.0159,-0.0172,0,0,0,0,0,-0.0357,-0.0335,-0.0312,-0.0301,-0.0296,-0.0272,-0.0262,-0.0244,-0.0234,-0.0226,-0.0218,-0.021,-0.02,-0.02,-0.0195,-0.0199,-0.0201,-0.0195,-0.0196,-0.0196,-0.0183,-0.0183,-0.0181,-0.0198,-0.0198,-0.0198,0,0,-0.0365,-0.0341,-0.033,-0.0303,-0.0292,-0.0287,-0.0265,-0.0253,-0.0239,-0.0228,-0.0217,-0.0209,-0.0202,-0.0197,-0.0197,-0.02,-0.0198,-0.0198,-0.0198,-0.0184,-0.0184,-0.0182,-0.018,-0.0199,-0.0199,-0.0199,0,0,-0.0374,-0.0352,-0.0334,-0.0325,-0.0302,-0.0295,-0.0293,-0.0274,-0.0253,-0.0244,-0.0227,-0.022,-0.0215,-0.0204,-0.0197,-0.0204,-0.0196,-0.0204,-0.0192,-0.0192,-0.019,-0.0188,-0.0207,-0.0206,-0.0209,-0.0209,-0.0209,0,-0.0386,-0.0358,-0.0334,-0.0321,-0.0314,-0.0302,-0.0295,-0.0278,-0.0261,-0.0245,-0.0242,-0.0215,-0.0214,-0.0192,-0.0191,-0.0201,-0.0204,-0.0185,-0.019,-0.0188,-0.0187,-0.0206,-0.0206,-0.0208,-0.0208,-0.0208,-0.0208,0,-0.038,-0.036,-0.0361,-0.0335,-0.0326,-0.0326,-0.0303,-0.0291,-0.0272,-0.0254,-0.0225,-0.0215,-0.0203,-0.0198,-0.0191,-0.0175,-0.0183,-0.0185,-0.0182,-0.0183,-0.0205,-0.0205,-0.0207,-0.0208,-0.0208,-0.0208,0,0,-0.0406,-0.0363,-0.0363,-0.0342,-0.0331,-0.0322,-0.0307,-0.0287,-0.0268,-0.0246,-0.0223,-0.0196,-0.0188,-0.0179,-0.0169,-0.016,-0.016,-0.0162,-0.0163,-0.0169,-0.0168,-0.0159,-0.0159,-0.0155,-0.0154,-0.0154,-0.0194,0,-0.0413,-0.0383,-0.0364,-0.0351,-0.0335,-0.032,-0.0315,-0.0289,-0.0265,-0.025,-0.0216,-0.02,-0.0182,-0.0173,-0.0159,-0.016,-0.0156,-0.0149,-0.0175,-0.0177,-0.0158,-0.0156,-0.0146,-0.0178,-0.0194,-0.0194,-0.0194,0,-0.041,-0.0385,-0.0367,-0.0335,-0.0331,-0.033,-0.0303,-0.029,-0.0265,-0.0248,-0.0217,-0.0199,-0.0181,-0.0168,-0.0156,-0.015,-0.0154,-0.015,-0.0152,-0.0144,-0.0166,-0.0177,-0.0177,-0.0194,-0.0194,-0.0194,-0.0194,0,-0.0418,-0.0387,-0.037,-0.0363,-0.0337,-0.0322,-0.0314,-0.0288,-0.027,-0.0246,-0.0237,-0.021,-0.0201,-0.0188,-0.0172,-0.017,-0.0159,-0.0171,-0.0165,-0.0166,-0.0161,-0.0161,-0.0158,-0.0158,-0.0158,-0.0158,-0.0157,0,-0.0425,-0.0407,-0.037,-0.0362,-0.0343,-0.032,-0.0302,-0.0289,-0.0274,-0.0257,-0.024,-0.0218,-0.02,-0.0185,-0.0179,-0.0168,-0.0174,-0.0155,-0.0167,-0.0158,-0.0158,-0.017,-0.0171,-0.0159,-0.0159,-0.0158,-0.0158,0,-0.042,-0.041,-0.0383,-0.0354,-0.0344,-0.0325,-0.0299,-0.0276,-0.0278,-0.0252,-0.0248,-0.0234,-0.022,-0.0198,-0.0188,-0.0182,-0.0174,-0.0167,-0.0163,-0.0172,-0.0187,-0.0187,-0.0186,-0.0186,-0.0186,-0.0186,-0.0186,0,-0.0399,-0.039,-0.0371,-0.0351,-0.0335,-0.0305,-0.0283,-0.0278,-0.0252,-0.0251,-0.0237,-0.0227,-0.0202,-0.0195,-0.0178,-0.0175,-0.017,-0.0168,-0.0157,-0.0174,-0.0186,-0.0186,-0.0186,-0.0161,-0.0161,-0.016,-0.016,0,-0.0351,-0.0365,-0.0343,-0.0319,-0.0293,-0.0263,-0.023,-0.0224,-0.0216,-0.0202,-0.0181,-0.017,-0.0172,-0.016,-0.0162,-0.0157,-0.0169,-0.0163,-0.018,-0.0146,-0.015,-0.0162,-0.0163,-0.0158,-0.0158,-0.0158,-0.0159,-0.0159,-0.0302,-0.029,-0.028,-0.0259,-0.0234,-0.0208,-0.0185,-0.0154,-0.0132,-0.0116,-0.0123,-0.0125,-0.0151,-0.0154,-0.0139,-0.0137,-0.0152,-0.0156,-0.0157,-0.0158,-0.0138,-0.014,-0.0144,-0.0145,-0.0145,-0.0145,-0.0145,0,-0.0215,-0.0223,-0.0204,-0.0182,-0.0157,-0.0163,-0.0132,-0.0121,-0.0082,-0.0083,-0.006,-0.0108,-0.01,-0.0134,-0.0126,-0.0121,-0.0117,-0.0121,-0.012,-0.0122,-0.0124,-0.0103,-0.01,-0.01,-0.01,-0.01,0,0,-0.0168,-0.0143,-0.0158,-0.011,-0.0097,-0.0068,-0.0056,-0.0048,-0.0056,-0.0072,-0.0089,-0.0082,-0.0134,-0.012,-0.0111,-0.0104,-0.0109,-0.0098,-0.0136,-0.0137,-0.0138,-0.0148,-0.0118,0,0,0,0,0]},{"header":{"parameterUnit":"m.s-1","parameterCategory":2,"la1":30.2991,"la2":30.254,"lo1":-89.0895,"lo2":-89.0444,"dy":0.0017,"dx":0.0017,"nx":28,"ny":28,"refTime":"2025-04-14T03:00:00:Z","depth":"2","parameterNumber":3,"parameterNumberName":"V-component_of_CURRENTS"},"data":[0,0,0,0,0,0,0,0,0,0,0,0,0,0,0,0,0,0,0,0,0,0,0,0,0,0,0,0,0,0,0,0,0,0,0,0,0,0,0,0,0,0,0,0,0,0,0,0,0,0,0,0,0,0,0,0,0,0,0.0104,0.0104,0,0.0075,0.0075,0.0074,0.0047,0.0046,0.0046,0.0046,0.0001,-0.0,-0.0001,0,0,0,0,0,0,0,0,0,0,0,0,0,0.0124,0.0124,0.0104,0.0104,0.0103,0.0075,0.0075,0.0074,0.0047,0.0046,0.0046,0.0046,0.0001,-0.0,-0.0001,0,0,0,0,0,0,0,0,0,0,0,0,0,0.0106,0.0124,0.0104,0.0088,0.0086,0.0076,0.0075,0.0074,0.0047,0.0046,0.0046,0.0046,0.0001,-0.0,-0.0002,-0.0006,0,0,-0.0006,-0.0007,0,0,0,0,0,0,0,0,0.0107,0.0105,0.009,0.0089,0.0087,0.0066,0.0066,0.0047,0.0047,0.006,0.0046,0.0046,0.0022,0.0019,0.0012,-0.0008,-0.001,-0.0007,-0.0007,-0.0008,-0.0009,0,0,0,0,0,0,0,0.0108,0.0106,0.0091,0.009,0.0088,0.0079,0.0076,0.0062,0.0041,0.0058,0.0057,0.0057,0.0021,0.0013,0.0011,-0.001,-0.0006,-0.0008,-0.0009,-0.0009,-0.0051,-0.0052,0,0,0,0,0,0,0.0116,0.0107,0.0092,0.009,0.0099,0.0079,0.0075,0.0071,0.0042,0.0037,0.0057,0.0056,0.0016,0.0012,0.0009,-0.0009,-0.0008,-0.001,-0.001,-0.0051,-0.0051,-0.0052,0,0,0,0,0,0,0.0117,0.0115,0.0093,0.01,0.0096,0.0079,0.0075,0.0071,0.0062,0.0041,0.0036,0.0052,0.0016,0.0011,-0.0011,-0.001,-0.001,-0.0012,-0.0051,-0.0051,-0.0051,-0.0036,0,0,0,0,0,0,0.0118,0.0115,0.0109,0.01,0.0096,0.0084,0.0075,0.0071,0.0063,0.0061,0.0035,0.003,0.0015,-0.0008,-0.0012,-0.0012,-0.0013,-0.0051,-0.0051,-0.0051,-0.0037,-0.0036,-0.0036,0,0,0,0,0,0.0118,0.0116,0.0109,0.0107,0.009,0.0085,0.0081,0.0067,0.0063,0.0057,0.0037,0.0031,-0.0013,-0.001,-0.0014,-0.0015,-0.0051,-0.0051,-0.0051,-0.0037,-0.0036,-0.0036,0,0,0,0,0,0,0.0125,0.0112,0.0105,0.0099,0.0091,0.0081,0.0076,0.0069,0.0049,0.0044,0.0026,0.002,-0.0,-0.0009,-0.0005,-0.0028,-0.0032,-0.0033,-0.0019,-0.0018,-0.0018,-0.0028,-0.0014,0,0,0,0,0,0.0124,0.0115,0.0106,0.0101,0.0099,0.0088,0.0082,0.0072,0.0058,0.0049,0.0033,0.0014,-0.0005,-0.0013,-0.0033,-0.0043,-0.0048,-0.0046,-0.0045,-0.0045,-0.0056,-0.0052,-0.0052,-0.0053,-0.0053,-0.0053,0,0,0.0126,0.0117,0.0113,0.0101,0.0095,0.0087,0.0083,0.0075,0.0064,0.0047,0.0027,0.0012,-0.0009,-0.0026,-0.0034,-0.0033,-0.0046,-0.0045,-0.0044,-0.0056,-0.0053,-0.0053,-0.0053,-0.0053,-0.0053,-0.0053,0,0,0.0126,0.0119,0.011,0.0105,0.0094,0.0087,0.0086,0.0074,0.0063,0.0042,0.0028,0.0012,-0.0014,-0.0028,-0.0038,-0.0045,-0.0047,-0.0046,-0.0048,-0.0044,-0.0044,-0.0043,-0.0044,-0.0044,-0.0041,-0.0041,-0.0041,0,0.0128,0.0116,0.0108,0.0101,0.0097,0.0088,0.0081,0.007,0.005,0.0039,0.0035,-0.0003,-0.0017,-0.0036,-0.0041,-0.0044,-0.0043,-0.0046,-0.0042,-0.0042,-0.0043,-0.0043,-0.0043,-0.0041,-0.0041,-0.0041,-0.0041,0,0.0122,0.0111,0.0111,0.0095,0.0089,0.0084,0.0072,0.0059,0.0047,0.0034,0.001,-0.0007,-0.003,-0.003,-0.0042,-0.0049,-0.0048,-0.0043,-0.0041,-0.0041,-0.0042,-0.0042,-0.004,-0.004,-0.004,-0.004,0,0,0.0122,0.0109,0.0106,0.0096,0.0086,0.0078,0.0064,0.0046,0.0032,0.0015,-0.0,-0.0027,-0.0033,-0.0046,-0.0051,-0.0049,-0.0046,-0.0047,-0.0047,-0.0044,-0.0039,-0.0031,-0.003,-0.0035,-0.0035,-0.0036,-0.0037,0,0.0117,0.0101,0.0098,0.0082,0.007,0.0064,0.0054,0.0035,0.0017,0.0001,-0.0013,-0.003,-0.0038,-0.0044,-0.0045,-0.005,-0.0049,-0.0047,-0.0044,-0.0044,-0.0033,-0.0031,0.0001,0.0003,-0.0037,-0.0037,-0.0037,0,0.0103,0.0092,0.0081,0.0065,0.0062,0.0055,0.0032,0.0024,0.0002,-0.001,-0.0027,-0.0038,-0.0048,-0.0047,-0.0055,-0.0052,-0.0051,-0.005,-0.0049,-0.0051,-0.0037,-0.0005,0.0004,-0.0039,-0.0038,-0.0038,-0.0038,0,0.0089,0.0075,0.0065,0.0062,0.005,0.0042,0.0036,0.0015,0.0003,-0.0013,-0.0027,-0.0038,-0.0047,-0.0045,-0.0055,-0.0051,-0.0058,-0.0047,-0.004,-0.0039,-0.0019,-0.0016,-0.0052,-0.0052,-0.0052,-0.0052,-0.0052,0,0.0076,0.0063,0.0057,0.0052,0.0041,0.0034,0.002,0.0012,-0.0005,-0.002,-0.0029,-0.0046,-0.0047,-0.0056,-0.0054,-0.0053,-0.0056,-0.0047,-0.004,-0.0012,-0.0009,-0.0053,-0.0053,-0.0052,-0.0052,-0.0052,-0.0052,0,0.0055,0.0056,0.0044,0.0037,0.0035,0.0027,0.0017,0.0002,-0.001,-0.0029,-0.0033,-0.0054,-0.0058,-0.0061,-0.006,-0.0055,-0.0049,-0.0048,-0.002,-0.0009,-0.0033,-0.0032,-0.0035,-0.0034,-0.0034,-0.0034,-0.0034,0,0.0037,0.0033,0.0037,0.0041,0.0039,0.0027,0.0021,0.0005,-0.0013,-0.0037,-0.0048,-0.0062,-0.0068,-0.0063,-0.0051,-0.0038,-0.0049,-0.0004,0.0007,-0.0039,-0.0032,-0.0032,-0.0031,0.0043,0.0044,0.0044,0.0045,0,0.0015,0.0029,0.0029,0.004,0.0037,0.003,0.0014,0.0,-0.0019,-0.0036,-0.0059,-0.0063,-0.0065,-0.0032,-0.0015,-0.0006,-0.0001,0.0009,-0.0043,0.0032,0.0033,0.0041,0.0039,0.0051,0.005,0.005,0.0049,0.0049,0.0007,0.0014,0.0036,0.0045,0.0039,0.0039,0.0045,0.0023,0.0011,0.0012,-0.0028,0.0003,-0.0002,0.0062,0.0038,0.0028,0.0026,0.0047,0.0045,0.0043,0.005,0.0052,0.0074,0.0073,0.0073,0.0073,0.0072,0,0.0017,0.0035,0.0042,0.006,0.0059,0.0056,0.0048,0.0073,0.0076,0.0067,0.0067,0.0109,0.0129,0.0115,0.0109,0.0086,0.0079,0.0083,0.0089,0.0085,0.0081,0.009,0.0123,0.0123,0.0123,0.0123,0,0,0.0032,0.0057,0.007,0.0086,0.0088,0.0116,0.0124,0.0156,0.0171,0.0195,0.0216,0.0231,0.019,0.0202,0.0161,0.0145,0.0116,0.0139,0.0108,0.0117,0.0112,0.0077,0.0089,0,0,0,0,0]}],[{"header":{"parameterUnit":"m.s-1","parameterCategory":2,"la1":30.2991,"la2":30.254,"lo1":-89.0895,"lo2":-89.0444,"dy":0.0017,"dx":0.0017,"nx":28,"ny":28,"refTime":"2025-04-14T03:00:00:Z","depth":"4","parameterNumber":2,"parameterNumberName":"U-component_of_CURRENTS"},"data":[0,0,0,0,0,0,0,0,0,0,0,0,0,0,0,0,0,0,0,0,0,0,0,0,0,0,0,0,0,0,0,0,0,0,0,0,0,0,0,0,0,0,0,0,0,0,0,0,0,0,0,0,0,0,0,0,0,0,-0.0678,-0.0678,0,-0.0725,-0.0726,-0.0726,-0.0749,-0.0749,-0.0749,-0.0749,-0.0854,-0.0857,-0.086,0,0,0,0,0,0,0,0,0,0,0,0,0,-0.0598,-0.06,-0.0678,-0.0678,-0.0679,-0.0725,-0.0726,-0.0726,-0.0749,-0.0749,-0.0749,-0.0749,-0.0854,-0.0857,-0.086,0,0,0,0,0,0,0,0,0,0,0,0,0,-0.0637,-0.06,-0.0677,-0.0697,-0.0699,-0.0725,-0.0726,-0.0726,-0.0749,-0.0749,-0.0749,-0.0749,-0.0853,-0.0856,-0.086,-0.0883,0,0,-0.0873,-0.0875,0,0,0,0,0,0,0,0,-0.0635,-0.064,-0.0693,-0.0696,-0.0698,-0.0732,-0.0736,-0.0782,-0.0749,-0.0729,-0.0749,-0.075,-0.082,-0.0826,-0.0833,-0.0888,-0.0892,-0.0873,-0.0876,-0.0877,-0.0879,0,0,0,0,0,0,0,-0.0632,-0.0638,-0.0695,-0.0694,-0.0697,-0.0701,-0.0706,-0.0745,-0.0773,-0.0731,-0.0733,-0.074,-0.0821,-0.0828,-0.0835,-0.0894,-0.0873,-0.0877,-0.0879,-0.0881,-0.1011,-0.1012,0,0,0,0,0,0,-0.0629,-0.0635,-0.0694,-0.0697,-0.0668,-0.0702,-0.0708,-0.072,-0.0771,-0.0779,-0.074,-0.0741,-0.0821,-0.0831,-0.0839,-0.0929,-0.0877,-0.0881,-0.0884,-0.101,-0.1011,-0.1012,0,0,0,0,0,0,-0.0627,-0.0634,-0.0692,-0.0668,-0.0675,-0.0703,-0.0717,-0.0721,-0.0742,-0.0778,-0.0787,-0.0758,-0.0822,-0.0834,-0.088,-0.0931,-0.0883,-0.0887,-0.1009,-0.101,-0.1012,-0.1069,0,0,0,0,0,0,-0.0625,-0.0633,-0.0648,-0.0668,-0.0677,-0.0716,-0.0717,-0.0722,-0.0746,-0.0748,-0.0796,-0.0805,-0.0823,-0.0874,-0.0884,-0.0935,-0.089,-0.1007,-0.1009,-0.1011,-0.1066,-0.1073,-0.1078,0,0,0,0,0,-0.0622,-0.0641,-0.0649,-0.0656,-0.0694,-0.0717,-0.0722,-0.0741,-0.0747,-0.076,-0.0788,-0.0804,-0.0894,-0.0878,-0.089,-0.0944,-0.1006,-0.1009,-0.1011,-0.1064,-0.1071,-0.1078,0,0,0,0,0,0,-0.0614,-0.0646,-0.0655,-0.0683,-0.0702,-0.0722,-0.074,-0.0749,-0.078,-0.0788,-0.0816,-0.0827,-0.0888,-0.0899,-0.0881,-0.0983,-0.0954,-0.0959,-0.099,-0.0998,-0.1004,-0.1043,-0.0893,0,0,0,0,0,-0.0619,-0.0646,-0.0668,-0.0692,-0.0703,-0.0723,-0.0737,-0.0749,-0.0775,-0.0789,-0.0822,-0.086,-0.0905,-0.0936,-0.0968,-0.1026,-0.1016,-0.1066,-0.1072,-0.1077,-0.1115,-0.1127,-0.1138,-0.102,-0.102,-0.102,0,0,-0.0624,-0.0645,-0.0661,-0.0693,-0.071,-0.073,-0.0732,-0.0759,-0.0788,-0.0798,-0.0852,-0.0882,-0.0921,-0.0984,-0.1013,-0.1004,-0.1095,-0.108,-0.1085,-0.1121,-0.1131,-0.1143,-0.1153,-0.1021,-0.1021,-0.1021,0,0,-0.0639,-0.0664,-0.0687,-0.0704,-0.0734,-0.0747,-0.0757,-0.0785,-0.0812,-0.0866,-0.088,-0.0928,-0.1002,-0.1033,-0.1061,-0.1117,-0.1122,-0.1141,-0.1219,-0.1229,-0.1239,-0.1249,-0.1206,-0.1211,-0.1151,-0.1151,-0.1152,0,-0.0639,-0.0672,-0.0696,-0.0718,-0.0733,-0.0755,-0.0773,-0.0809,-0.0851,-0.0882,-0.0893,-0.1008,-0.1026,-0.1113,-0.1146,-0.1135,-0.1136,-0.1189,-0.1238,-0.1248,-0.1256,-0.1211,-0.1215,-0.1154,-0.1154,-0.1154,-0.1154,0,-0.0666,-0.0693,-0.0708,-0.0744,-0.0763,-0.0784,-0.0824,-0.0861,-0.0901,-0.0937,-0.1035,-0.1078,-0.1151,-0.1167,-0.1192,-0.1277,-0.1253,-0.1237,-0.1222,-0.1272,-0.1219,-0.1223,-0.1159,-0.1158,-0.1157,-0.1156,0,0,-0.0638,-0.0713,-0.0713,-0.0734,-0.0775,-0.079,-0.085,-0.0903,-0.0949,-0.1031,-0.111,-0.1206,-0.125,-0.1287,-0.1319,-0.1355,-0.1391,-0.1354,-0.1353,-0.1316,-0.1401,-0.1239,-0.1227,-0.1405,-0.1407,-0.1409,-0.1323,0,-0.0642,-0.0693,-0.0725,-0.0761,-0.0782,-0.0823,-0.0874,-0.0931,-0.0994,-0.1077,-0.1169,-0.1245,-0.1291,-0.1338,-0.1398,-0.1384,-0.1415,-0.1415,-0.1357,-0.1355,-0.1209,-0.1232,-0.1416,-0.1326,-0.1327,-0.1327,-0.1328,0,-0.0629,-0.0672,-0.0712,-0.0775,-0.0787,-0.0816,-0.0887,-0.0944,-0.1061,-0.1117,-0.1239,-0.1303,-0.1399,-0.1421,-0.1471,-0.1481,-0.1477,-0.1463,-0.1458,-0.1305,-0.1203,-0.1277,-0.1335,-0.1334,-0.1334,-0.1333,-0.1333,0,-0.0572,-0.0644,-0.0679,-0.0698,-0.078,-0.0812,-0.0864,-0.0956,-0.0989,-0.1148,-0.1165,-0.1329,-0.1351,-0.1433,-0.1419,-0.1465,-0.1431,-0.1454,-0.1303,-0.1288,-0.1434,-0.1426,-0.1505,-0.1506,-0.1506,-0.1506,-0.1506,0,-0.0535,-0.0554,-0.0663,-0.0676,-0.0716,-0.0795,-0.0843,-0.0917,-0.1012,-0.1037,-0.119,-0.1208,-0.1363,-0.136,-0.1415,-0.1335,-0.1407,-0.1328,-0.1271,-0.1451,-0.1446,-0.1433,-0.1426,-0.1503,-0.1503,-0.1504,-0.1505,0,-0.0441,-0.0516,-0.0551,-0.0655,-0.0683,-0.0714,-0.0787,-0.0827,-0.0911,-0.0948,-0.0986,-0.1083,-0.108,-0.116,-0.1211,-0.1227,-0.1218,-0.1172,-0.1307,-0.1256,-0.1083,-0.108,-0.1034,-0.1028,-0.1023,-0.1019,-0.1015,0,-0.0404,-0.0417,-0.0507,-0.0532,-0.0574,-0.0637,-0.0674,-0.0774,-0.0798,-0.0839,-0.0839,-0.0848,-0.0913,-0.0834,-0.0955,-0.0999,-0.1014,-0.1002,-0.1143,-0.1094,-0.1043,-0.1048,-0.1052,-0.1007,-0.1006,-0.1004,-0.1003,0,-0.0324,-0.0352,-0.0384,-0.0438,-0.0479,-0.0525,-0.0586,-0.0574,-0.0674,-0.0707,-0.0673,-0.0699,-0.0664,-0.0743,-0.0736,-0.0795,-0.1026,-0.095,-0.0965,-0.1098,-0.106,-0.1016,-0.1026,-0.0985,-0.0988,-0.0989,-0.0991,0,-0.0259,-0.0252,-0.0305,-0.0343,-0.0392,-0.0437,-0.0473,-0.0497,-0.0518,-0.0565,-0.0531,-0.0569,-0.0617,-0.0625,-0.0636,-0.0655,-0.0711,-0.0762,-0.0788,-0.0809,-0.0785,-0.0707,-0.0481,0,0,0,0,0,-0.0216,-0.0207,-0.0223,-0.0283,-0.0329,-0.0379,-0.0428,-0.047,-0.0517,-0.0462,-0.0503,-0.0483,-0.0495,-0.0518,-0.0507,-0.0579,-0.0733,-0.0567,-0.0809,-0.0886,-0.0907,-0.0907,0,0,0,0,0,0,-0.0194,-0.0191,-0.0197,-0.0234,-0.0272,-0.0336,-0.0377,-0.0414,-0.0396,-0.0427,-0.0429,-0.0453,-0.0472,-0.0485,-0.0494,-0.0505,-0.0651,-0.0589,-0.0588,-0.0875,-0.0893,-0.091,-0.0917,0,0,0,0,0]},{"header":{"parameterUnit":"m.s-1","parameterCategory":2,"la1":30.2991,"la2":30.254,"lo1":-89.0895,"lo2":-89.0444,"dy":0.0017,"dx":0.0017,"nx":28,"ny":28,"refTime":"2025-04-14T03:00:00:Z","depth":"4","parameterNumber":3,"parameterNumberName":"V-component_of_CURRENTS"},"data":[0,0,0,0,0,0,0,0,0,0,0,0,0,0,0,0,0,0,0,0,0,0,0,0,0,0,0,0,0,0,0,0,0,0,0,0,0,0,0,0,0,0,0,0,0,0,0,0,0,0,0,0,0,0,0,0,0,0,0.0182,0.0182,0,0.0197,0.0197,0.0197,0.0205,0.0205,0.0206,0.0206,0.0192,0.0192,0.0191,0,0,0,0,0,0,0,0,0,0,0,0,0,0.0144,0.0145,0.0182,0.0182,0.0183,0.0197,0.0197,0.0197,0.0205,0.0205,0.0206,0.0206,0.0193,0.0192,0.0191,0,0,0,0,0,0,0,0,0,0,0,0,0,0.0157,0.0145,0.0182,0.0191,0.0192,0.0197,0.0197,0.0196,0.0205,0.0205,0.0206,0.0206,0.0193,0.0192,0.0191,0.0175,0,0,0.0188,0.0188,0,0,0,0,0,0,0,0,0.0156,0.0158,0.0189,0.019,0.0192,0.0202,0.0179,0.0189,0.0205,0.0197,0.0206,0.0206,0.0195,0.0194,0.0191,0.0175,0.0174,0.0188,0.0187,0.0187,0.0187,0,0,0,0,0,0,0,0.0156,0.0157,0.0184,0.019,0.0191,0.0189,0.0191,0.0181,0.019,0.0197,0.0199,0.0205,0.0195,0.0192,0.0191,0.0174,0.0188,0.0187,0.0186,0.0186,0.0138,0.0137,0,0,0,0,0,0,0.0161,0.0157,0.0184,0.0185,0.0178,0.019,0.0192,0.0196,0.0191,0.0191,0.0205,0.0206,0.0194,0.0192,0.0191,0.0173,0.0187,0.0186,0.0185,0.0139,0.0138,0.0137,0,0,0,0,0,0,0.016,0.0163,0.0183,0.0174,0.0177,0.019,0.0194,0.0196,0.0201,0.0197,0.0197,0.021,0.0194,0.0192,0.018,0.0173,0.0186,0.0185,0.0139,0.0138,0.0137,0.0137,0,0,0,0,0,0,0.0158,0.0162,0.0167,0.0174,0.0178,0.0193,0.0194,0.0196,0.0206,0.0207,0.0202,0.0201,0.0194,0.0181,0.0179,0.0171,0.0184,0.014,0.0139,0.0138,0.0138,0.0136,0.0134,0,0,0,0,0,0.0157,0.0164,0.0166,0.017,0.0183,0.0193,0.0194,0.0203,0.0206,0.0209,0.0199,0.0201,0.0171,0.018,0.0177,0.0169,0.0141,0.0139,0.0138,0.0139,0.0136,0.0134,0,0,0,0,0,0,0.0152,0.0166,0.0169,0.018,0.0189,0.0196,0.0203,0.0206,0.0201,0.0201,0.0194,0.0191,0.0178,0.0171,0.0181,0.015,0.0156,0.0154,0.0157,0.0155,0.0153,0.0183,0.0183,0,0,0,0,0,0.0153,0.0162,0.0172,0.0183,0.0187,0.0194,0.02,0.0204,0.0203,0.0202,0.0195,0.0182,0.0167,0.0161,0.0149,0.0132,0.0142,0.0124,0.0122,0.0121,0.0142,0.0147,0.0148,0.0132,0.0132,0.0132,0,0,0.0157,0.0165,0.0171,0.0182,0.0189,0.0183,0.0198,0.0208,0.0199,0.02,0.0183,0.0179,0.0162,0.0144,0.0137,0.0139,0.0126,0.0119,0.0118,0.014,0.0146,0.0147,0.0149,0.0131,0.0131,0.0131,0,0,0.0161,0.0172,0.0176,0.0177,0.0188,0.0187,0.0191,0.0195,0.0195,0.0183,0.0176,0.0166,0.0148,0.0131,0.0121,0.0101,0.0119,0.0099,0.0114,0.0117,0.0119,0.0122,0.0121,0.0123,0.0096,0.0096,0.0096,0,0.0164,0.0166,0.018,0.0175,0.0172,0.0186,0.0177,0.0175,0.0173,0.017,0.0178,0.0153,0.0138,0.0114,0.0115,0.0097,0.0114,0.0123,0.0117,0.012,0.0122,0.0121,0.0123,0.0096,0.0096,0.0096,0.0096,0,0.0165,0.0161,0.0164,0.0155,0.0153,0.0153,0.0148,0.0146,0.0148,0.0148,0.014,0.0129,0.0125,0.0107,0.0112,0.0114,0.0125,0.0117,0.0128,0.0124,0.0122,0.0125,0.0096,0.0096,0.0096,0.0096,0,0,0.0188,0.0166,0.0167,0.0155,0.0141,0.0142,0.0121,0.0114,0.0108,0.0113,0.0114,0.0096,0.0122,0.0114,0.0112,0.0118,0.0138,0.0142,0.0143,0.0152,0.0162,0.0145,0.0146,0.0146,0.0147,0.0148,0.015,0,0.0184,0.0168,0.0152,0.013,0.0122,0.0109,0.0091,0.0085,0.0083,0.0088,0.0094,0.01,0.0113,0.0129,0.0137,0.0141,0.0149,0.0139,0.0157,0.0157,0.0151,0.0149,0.015,0.0151,0.0152,0.0152,0.0153,0,0.0197,0.0179,0.0158,0.012,0.0115,0.0103,0.0083,0.007,0.0071,0.0077,0.0095,0.0113,0.0132,0.0148,0.0164,0.0169,0.0184,0.0181,0.018,0.0175,0.0146,0.0159,0.0158,0.0157,0.0157,0.0157,0.0156,0,0.0229,0.0187,0.017,0.0157,0.0116,0.0109,0.0097,0.0082,0.0076,0.0096,0.0102,0.0125,0.0146,0.0172,0.0181,0.0193,0.0195,0.0193,0.0181,0.0179,0.0196,0.0194,0.0214,0.0214,0.0214,0.0214,0.0214,0,0.0242,0.0234,0.0189,0.0185,0.0167,0.0138,0.0132,0.0118,0.0113,0.0123,0.0125,0.0134,0.0164,0.0167,0.0186,0.0189,0.0195,0.0196,0.0184,0.0191,0.0189,0.0197,0.0195,0.0214,0.0214,0.0214,0.0214,0,0.0299,0.0264,0.025,0.0204,0.019,0.0194,0.0166,0.0166,0.0146,0.0162,0.0181,0.016,0.0167,0.0159,0.0178,0.0181,0.0184,0.0181,0.0182,0.0168,0.0169,0.0167,0.0185,0.0185,0.0185,0.0184,0.0184,0,0.0324,0.0323,0.0285,0.0277,0.0262,0.0253,0.025,0.0213,0.0212,0.0179,0.0195,0.0183,0.0182,0.017,0.0163,0.0165,0.0166,0.0167,0.019,0.0183,0.0169,0.0167,0.0166,0.0183,0.0183,0.0183,0.0183,0,0.0366,0.0365,0.0348,0.0331,0.0324,0.0318,0.031,0.0303,0.0274,0.0249,0.0231,0.0216,0.0197,0.0185,0.0168,0.0173,0.0169,0.0164,0.0165,0.0187,0.0181,0.0167,0.0165,0.0182,0.0182,0.0182,0.0182,0,0.0398,0.0402,0.0377,0.0357,0.0368,0.0374,0.0363,0.0348,0.0329,0.0285,0.0287,0.0244,0.0224,0.0188,0.0177,0.0169,0.0183,0.0199,0.0199,0.02,0.0199,0.0194,0.0199,0,0,0,0,0,0.0399,0.0387,0.039,0.0364,0.0395,0.0389,0.0389,0.0374,0.034,0.0344,0.0312,0.03,0.0261,0.0219,0.0215,0.0175,0.0179,0.0169,0.0198,0.0174,0.0176,0.017,0,0,0,0,0,0,0.0387,0.0391,0.038,0.0381,0.0382,0.04,0.0407,0.039,0.0378,0.0349,0.0323,0.0303,0.0256,0.0268,0.0215,0.0206,0.0226,0.0142,0.0142,0.0173,0.0174,0.0176,0.017,0,0,0,0,0]}]]